Stündliche Wetter 1-e Itkulovo

Heute, 25 Juni, Freitag

Zeit Temperatur Niederschläge Wind Luftdruck Luftfeuchtigkeit
00:00 +16°C° 0 mm 1 m/S 717 mmHg 64%
01:00 +15°C° 0 mm 1 m/S 717 mmHg 66%
02:00 +15°C° 0 mm 1 m/S 717 mmHg 69%
03:00 +15°C° 0 mm 1 m/S 716 mmHg 71%
04:00 +15°C° 0 mm 1 m/S 716 mmHg 74%
05:00 +17°C° 0 mm 2 m/S 716 mmHg 70%
06:00 +19°C° 0 mm 2 m/S 716 mmHg 67%
07:00 +21°C° 0 mm 2 m/S 716 mmHg 63%
08:00 +22°C° 0 mm 3 m/S 716 mmHg 58%
09:00 +25°C° 0 mm 3 m/S 716 mmHg 53%
10:00 +27°C° 0 mm 3 m/S 716 mmHg 48%
11:00 +27°C° 0 mm 3 m/S 716 mmHg 48%
12:00 +28°C° 0 mm 4 m/S 716 mmHg 48%
13:00 +29°C° 0 mm 4 m/S 715 mmHg 48%
14:00 +28°C° 0.1 mm 4 m/S 715 mmHg 51%
15:00 +27°C° 0.1 mm 3 m/S 715 mmHg 55%
16:00 +27°C° 0.1 mm 3 m/S 715 mmHg 58%
17:00 +26°C° 0 mm 3 m/S 715 mmHg 61%
18:00 +26°C° 0 mm 3 m/S 715 mmHg 65%
19:00 +25°C° 0 mm 3 m/S 715 mmHg 68%
20:00 +22°C° 0 mm 3 m/S 715 mmHg 74%
21:00 +21°C° 0 mm 3 m/S 714 mmHg 80%
22:00 +19°C° 0 mm 2 m/S 714 mmHg 86%
23:00 +19°C° 0 mm 2 m/S 714 mmHg 87%

Morgen, 26 Juni, Samstag

Zeit Temperatur Niederschläge Wind Luftdruck Luftfeuchtigkeit
00:00 +18°C° 0 mm 2 m/S 714 mmHg 88%
01:00 +19°C° 0 mm 1 m/S 714 mmHg 89%
02:00 +18°C° 0 mm 1 m/S 714 mmHg 89%
03:00 +18°C° 0 mm 1 m/S 714 mmHg 89%
04:00 +18°C° 0 mm 1 m/S 714 mmHg 89%
05:00 +20°C° 0 mm 1 m/S 714 mmHg 83%
06:00 +22°C° 0 mm 1 m/S 715 mmHg 77%
07:00 +23°C° 0 mm 1 m/S 715 mmHg 72%
08:00 +25°C° 0 mm 2 m/S 715 mmHg 65%
09:00 +27°C° 0 mm 2 m/S 715 mmHg 58%
10:00 +28°C° 0 mm 3 m/S 715 mmHg 51%
11:00 +29°C° 0 mm 3 m/S 715 mmHg 47%
12:00 +30°C° 0 mm 3 m/S 715 mmHg 44%
13:00 +30°C° 0 mm 3 m/S 715 mmHg 41%
14:00 +31°C° 0 mm 3 m/S 714 mmHg 39%
15:00 +31°C° 0 mm 3 m/S 714 mmHg 38%
16:00 +31°C° 0 mm 3 m/S 714 mmHg 37%
17:00 +30°C° 0 mm 3 m/S 714 mmHg 44%
18:00 +29°C° 0 mm 3 m/S 714 mmHg 51%
19:00 +27°C° 0 mm 3 m/S 713 mmHg 58%
20:00 +25°C° 0.3 mm 2 m/S 714 mmHg 67%
21:00 +23°C° 0.3 mm 2 m/S 714 mmHg 76%
22:00 +20°C° 0.3 mm 2 m/S 714 mmHg 86%
23:00 +20°C° 0 mm 2 m/S 714 mmHg 88%

übermorgen, 27 Juni, Sonntag

Zeit Temperatur Niederschläge Wind Luftdruck Luftfeuchtigkeit
00:00 +19°C° 0 mm 2 m/S 714 mmHg 90%
01:00 +18°C° 0 mm 2 m/S 714 mmHg 93%
02:00 +18°C° 0 mm 2 m/S 714 mmHg 92%
03:00 +18°C° 0 mm 2 m/S 714 mmHg 92%
04:00 +18°C° 0 mm 2 m/S 714 mmHg 92%
05:00 +19°C° 0 mm 2 m/S 714 mmHg 87%
06:00 +21°C° 0 mm 2 m/S 714 mmHg 83%
07:00 +24°C° 0 mm 3 m/S 714 mmHg 78%
08:00 +25°C° 0 mm 3 m/S 715 mmHg 69%
09:00 +27°C° 0 mm 3 m/S 715 mmHg 59%
10:00 +28°C° 0 mm 4 m/S 715 mmHg 49%
11:00 +29°C° 0 mm 3 m/S 715 mmHg 45%
12:00 +30°C° 0 mm 3 m/S 715 mmHg 42%
13:00 +31°C° 0 mm 2 m/S 715 mmHg 38%
14:00 +30°C° 0 mm 3 m/S 715 mmHg 40%
15:00 +30°C° 0 mm 3 m/S 715 mmHg 41%
16:00 +30°C° 0 mm 3 m/S 715 mmHg 43%
17:00 +29°C° 0 mm 3 m/S 715 mmHg 48%
18:00 +28°C° 0 mm 2 m/S 715 mmHg 53%
19:00 +27°C° 0 mm 2 m/S 715 mmHg 58%
20:00 +26°C° 0 mm 2 m/S 715 mmHg 62%
21:00 +24°C° 0 mm 2 m/S 715 mmHg 66%
22:00 +23°C° 0 mm 2 m/S 715 mmHg 70%
23:00 +21°C° 0 mm 2 m/S 715 mmHg 73%

28 Juni, Montag

Zeit Temperatur Niederschläge Wind Luftdruck Luftfeuchtigkeit
00:00 +20°C° 0 mm 2 m/S 715 mmHg 75%
01:00 +19°C° 0 mm 2 m/S 715 mmHg 78%
02:00 +19°C° 0 mm 2 m/S 715 mmHg 79%
03:00 +19°C° 0 mm 2 m/S 715 mmHg 81%
04:00 +18°C° 0 mm 2 m/S 715 mmHg 82%
05:00 +20°C° 0 mm 2 m/S 715 mmHg 76%
06:00 +21°C° 0 mm 2 m/S 716 mmHg 71%
07:00 +24°C° 0 mm 2 m/S 716 mmHg 66%
08:00 +25°C° 0 mm 2 m/S 716 mmHg 61%
09:00 +26°C° 0 mm 2 m/S 716 mmHg 57%
10:00 +28°C° 0 mm 3 m/S 716 mmHg 53%
11:00 +28°C° 0 mm 3 m/S 717 mmHg 50%
12:00 +29°C° 0 mm 2 m/S 717 mmHg 47%
13:00 +30°C° 0 mm 2 m/S 717 mmHg 44%
14:00 +30°C° 0 mm 2 m/S 717 mmHg 45%
15:00 +30°C° 0 mm 2 m/S 717 mmHg 46%
16:00 +30°C° 0 mm 2 m/S 716 mmHg 47%
17:00 +29°C° 0 mm 2 m/S 716 mmHg 50%
18:00 +28°C° 0 mm 2 m/S 716 mmHg 54%
19:00 +27°C° 0 mm 2 m/S 716 mmHg 58%
20:00 +25°C° 0 mm 2 m/S 716 mmHg 59%
21:00 +24°C° 0 mm 2 m/S 716 mmHg 61%
22:00 +23°C° 0 mm 2 m/S 716 mmHg 62%
23:00 +23°C° 0 mm 2 m/S 716 mmHg 64%

29 Juni, Dienstag

Zeit Temperatur Niederschläge Wind Luftdruck Luftfeuchtigkeit
00:00 +21°C° 0 mm 2 m/S 716 mmHg 66%
01:00 +21°C° 0 mm 2 m/S 716 mmHg 68%
02:00 +20°C° 0 mm 2 m/S 716 mmHg 70%
03:00 +20°C° 0 mm 2 m/S 717 mmHg 71%
04:00 +20°C° 0 mm 2 m/S 717 mmHg 73%
05:00 +21°C° 0 mm 2 m/S 717 mmHg 71%
06:00 +21°C° 0 mm 2 m/S 717 mmHg 69%
07:00 +23°C° 0 mm 2 m/S 717 mmHg 67%
08:00 +24°C° 0 mm 2 m/S 717 mmHg 62%
09:00 +26°C° 0 mm 2 m/S 717 mmHg 57%
10:00 +27°C° 0 mm 3 m/S 717 mmHg 53%
11:00 +28°C° 0 mm 2 m/S 717 mmHg 49%
12:00 +29°C° 0 mm 2 m/S 717 mmHg 46%
13:00 +31°C° 0 mm 2 m/S 717 mmHg 42%
14:00 +31°C° 0 mm 2 m/S 717 mmHg 42%
15:00 +31°C° 0 mm 2 m/S 717 mmHg 41%
16:00 +31°C° 0 mm 2 m/S 717 mmHg 41%
17:00 +30°C° 0 mm 2 m/S 716 mmHg 46%
18:00 +29°C° 0 mm 2 m/S 716 mmHg 51%
19:00 +28°C° 0 mm 2 m/S 716 mmHg 56%
20:00 +27°C° 0 mm 2 m/S 716 mmHg 57%
21:00 +26°C° 0 mm 2 m/S 716 mmHg 58%
22:00 +24°C° 0 mm 1 m/S 716 mmHg 59%
23:00 +24°C° 0 mm 1 m/S 716 mmHg 61%

30 Juni, Mittwoch

Zeit Temperatur Niederschläge Wind Luftdruck Luftfeuchtigkeit
00:00 +23°C° 0 mm 1 m/S 716 mmHg 63%
01:00 +22°C° 0 mm 1 m/S 716 mmHg 65%
02:00 +22°C° 0 mm 1 m/S 716 mmHg 64%
03:00 +21°C° 0 mm 1 m/S 716 mmHg 64%
04:00 +21°C° 0 mm 1 m/S 716 mmHg 63%
05:00 +23°C° 0 mm 1 m/S 716 mmHg 58%
06:00 +24°C° 0 mm 2 m/S 716 mmHg 54%
07:00 +26°C° 0 mm 2 m/S 716 mmHg 49%
08:00 +28°C° 0 mm 3 m/S 717 mmHg 46%
09:00 +29°C° 0 mm 3 m/S 717 mmHg 42%
10:00 +32°C° 0 mm 4 m/S 717 mmHg 38%
11:00 +33°C° 0 mm 4 m/S 717 mmHg 37%
12:00 +34°C° 0 mm 4 m/S 717 mmHg 36%
13:00 +34°C° 0 mm 4 m/S 716 mmHg 34%
14:00 +34°C° 0 mm 4 m/S 716 mmHg 34%
15:00 +34°C° 0 mm 4 m/S 716 mmHg 34%
16:00 +34°C° 0 mm 4 m/S 716 mmHg 34%
17:00 +33°C° 0 mm 3 m/S 716 mmHg 39%
18:00 +31°C° 0 mm 3 m/S 715 mmHg 44%
19:00 +30°C° 0 mm 3 m/S 715 mmHg 49%
20:00 +27°C° 0.2 mm 3 m/S 715 mmHg 56%
21:00 +25°C° 0.2 mm 2 m/S 715 mmHg 63%
22:00 +23°C° 0.2 mm 2 m/S 715 mmHg 69%
23:00 +23°C° 0.1 mm 2 m/S 714 mmHg 68%
Mehr zeigen

Wir brauchen deine Erlaubnis

Meteoprog und unser Service Anbieter werden persönliche Daten aufbewahren, so wie Cookies, Geräte Bezeichnung oder ähnliche Technologien von deinem Gerät und Prozess, so wie Persönliche Daten Inhalte und Werbungen, genauso wie social Media und den Verkehr zu analysieren.

  • Aufbewahrung und/oder Zugang zu deiner Geräte Informationen.

    Cookies, Geräte Bezeichnung oder andere Informationen, können aufbewahrt oder Zugang zu deinem Gerät erhalten, für den Grund, der oben angegeben wird.

  • Personalisierte Werbung und Inhalte, Messungen, Einblick in das Publikum und Produkt Entwicklung.

    Werbungen und Inhalte können personalisiert werden, basierend auf ein Profil. Mehr Daten können besser personalisierte Werbungen und Inhalte hinzufügen. Werbung und Inhalte können gezeigt und gemessen werden. Einblicke über das Publikum, welche die Werbung gesehen haben und den Inhalt, können abgeleitet werden. So wie Daten können genutzt werden, um es zu verbessern oder die Benutzer Erfahrung zu verbessern das System und die Software.

Wenn du “Ich stimme zu” klickst, erlaubst du uns, die Cookies zu benutzen die Geräte Bezeichnung, den Web oder ähnliche Technologien zu benutzen. Deine Settings, können in deinem Gerät bei deinem Browser geändert werden.

Für den bestimmten Zweck, berechtigten Interessen beruhen darauf, mehr als auf den Inhalt. Du kannst mehr darüber in unseren Privaten und Cookie Politik lesen.